Hourly Data Report for October 06, 2013

All times are specified in Local Standard Time (LST). Add 1 hour to adjust for Daylight Saving Time where and when it is observed.

SAINT JOHN A
NEW BRUNSWICK

45°18'58.000" N
65°53'24.000" W
108.80 m
8104901
71609
YSJ

Download Data

Hourly Data (October 2013)
Hourly Data Report for October 6, 2013
Temp Definition
°C
Dew Point Temp Definition
°C
Rel Hum Definition
%
Wind Dir Definition
10's deg

Wind Spd Definition
km/h
Visibility Definition
km
Stn Press Definition
kPa
Hmdx Definition


Wind Chill Definition


Weather Definition


TIME
00:00 Legend Double Dagger 6.7 2.6 75 1 12 24.1 100.77     LegendNANA
01:00 Legend Double Dagger 3.9 1.5 84 33 3 24.1 100.82     LegendNANA
02:00 Legend Double Dagger 1.8 1.1 95   0 24.1 100.84     Clear
03:00 Legend Double Dagger 4.8 2.0 82 33 15 24.1 100.87     LegendNANA
04:00 Legend Double Dagger 4.8 1.3 78 35 13 24.1 100.89     LegendNANA
05:00 Legend Double Dagger 4.1 1.5 83 35 14 24.1 100.92     Clear
06:00 Legend Double Dagger 4.3 1.7 83 35 15 24.1 100.96     LegendNANA
07:00 Legend Double Dagger 4.2 1.4 82 34 17 24.1 101.02     LegendNANA
08:00 Legend Double Dagger 6.4 1.9 73 36 12 24.1 101.10     Mainly Clear
09:00 Legend Double Dagger 8.2 1.6 63 36 13 24.1 101.13     LegendNANA
10:00 Legend Double Dagger 9.5 0.7 54 33 9 24.1 101.17     LegendNANA
11:00 Legend Double Dagger 11.7 1.7 50 34 12 24.1 101.19     Mainly Clear
12:00 Legend Double Dagger 12.9 1.0 44 2 5 24.1 101.17     LegendNANA
13:00 Legend Double Dagger 14.0 2.0 44 2 9 24.1 101.12     LegendNANA
14:00 Legend Double Dagger 14.4 1.4 41 1 9 24.1 101.11     Mainly Clear
15:00 Legend Double Dagger 14.5 1.5 41 36 10 24.1 101.10     LegendNANA
16:00 Legend Double Dagger 14.4 0.3 38 2 6 24.1 101.12     LegendNANA
17:00 Legend Double Dagger 12.6 4.9 59 22 15 24.1 101.16     Mostly Cloudy
18:00 Legend Double Dagger 8.6 4.4 75 20 9 24.1 101.23     LegendNANA
19:00 Legend Double Dagger 5.3 3.8 90 13 2 24.1 101.25     LegendNANA
20:00 Legend Double Dagger 3.4 2.7 95 36 3 24.1 101.29     Clear
21:00
22:00 Legend Double Dagger 2.9 2.3 96 3 5 24.1 101.26     LegendNANA
23:00 Legend Double Dagger 8.2 6.2 87 12 12 24.1 101.25     Mainly Clear

Notes on Data Quality.

Legend

  • E = Estimated
  • M = Missing
  • NA = Not Available
  • ‡ = Partner data that is not subject to review by the National Climate Archives
Date modified: